Location: Broletto
(44.6000°N, 10.5833°E)
Time: 07:31:53
(UTC+00:00)

Cosmos 44 - Pass Details

Date: 18 April 2021
Orbit: 571 x 791 km, 65.1° (Epoch: 06 May)

Event Time Altitude Azimuth Distance (km) Brightness Sun altitude
Rises 19:08:24 0° 199° (SSW) 3,069 6.5 -11.0°
Reaches altitude 10° 19:10:42 10° 195° (SSW) 2,189 5.7 -11.4°
Maximum altitude 19:15:36 55° 119° (ESE) 894 3.5 -12.2°
Drops below altitude 10° 19:20:48 10° 42° (NE) 2,321 5.9 -13.0°
Sets 19:23:19 0° 38° (NE) 3,271 6.7 -13.3°
